#datetime,building,power
2023-07-10T00:00:00,thn,2.11
2023-07-10T00:01:00,thn,5.48
2023-07-10T00:02:00,thn,5.54
2023-07-10T00:03:00,thn,5.46
2023-07-10T00:04:00,thn,5.54
2023-07-10T00:05:00,thn,5.52
2023-07-10T00:06:00,thn,5.58
2023-07-10T00:07:00,thn,3.06
2023-07-10T00:08:00,thn,2.06
2023-07-10T00:09:00,thn,2.05
2023-07-10T00:10:00,thn,2.16
2023-07-10T00:11:00,thn,2.17
2023-07-10T00:12:00,thn,2.15
2023-07-10T00:13:00,thn,2.12
2023-07-10T00:14:00,thn,2.11
2023-07-10T00:15:00,thn,2.07
2023-07-10T00:16:00,thn,2.31
2023-07-10T00:17:00,thn,2.12
2023-07-10T00:18:00,thn,2.11
2023-07-10T00:19:00,thn,2.12
2023-07-10T00:20:00,thn,2.10
2023-07-10T00:21:00,thn,2.11
2023-07-10T00:22:00,thn,2.12
2023-07-10T00:23:00,thn,2.11
2023-07-10T00:24:00,thn,2.11
2023-07-10T00:25:00,thn,2.13
2023-07-10T00:26:00,thn,2.13
2023-07-10T00:27:00,thn,2.07
2023-07-10T00:28:00,thn,2.19
2023-07-10T00:29:00,thn,5.56
2023-07-10T00:30:00,thn,5.76
2023-07-10T00:31:00,thn,5.70
2023-07-10T00:32:00,thn,5.71
2023-07-10T00:33:00,thn,5.70
2023-07-10T00:34:00,thn,3.18
2023-07-10T00:35:00,thn,2.31
2023-07-10T00:36:00,thn,2.45
2023-07-10T00:37:00,thn,2.44
2023-07-10T00:38:00,thn,2.64
2023-07-10T00:39:00,thn,2.44
2023-07-10T00:40:00,thn,2.36
2023-07-10T00:41:00,thn,2.35
2023-07-10T00:42:00,thn,2.35
2023-07-10T00:43:00,thn,5.30
2023-07-10T00:44:00,thn,5.12
2023-07-10T00:45:00,thn,5.10
2023-07-10T00:46:00,thn,4.97
2023-07-10T00:47:00,thn,4.98
2023-07-10T00:48:00,thn,4.98
2023-07-10T00:49:00,thn,2.94
2023-07-10T00:50:00,thn,2.22
2023-07-10T00:51:00,thn,4.25
2023-07-10T00:52:00,thn,5.20
2023-07-10T00:53:00,thn,7.41
2023-07-10T00:54:00,thn,7.44
2023-07-10T00:55:00,thn,7.42
2023-07-10T00:56:00,thn,7.39
2023-07-10T00:57:00,thn,5.46
2023-07-10T00:58:00,thn,5.37
2023-07-10T00:59:00,thn,6.31
2023-07-10T01:00:00,thn,5.28
2023-07-10T01:01:00,thn,5.30
2023-07-10T01:02:00,thn,5.25
2023-07-10T01:03:00,thn,2.74
2023-07-10T01:04:00,thn,1.88
2023-07-10T01:05:00,thn,1.87
2023-07-10T01:06:00,thn,1.85
2023-07-10T01:07:00,thn,2.98
2023-07-10T01:08:00,thn,1.86
2023-07-10T01:09:00,thn,1.86
2023-07-10T01:10:00,thn,1.86
2023-07-10T01:11:00,thn,1.87
2023-07-10T01:12:00,thn,4.53
2023-07-10T01:13:00,thn,4.55
2023-07-10T01:14:00,thn,4.63
2023-07-10T01:15:00,thn,4.57
2023-07-10T01:16:00,thn,4.57
2023-07-10T01:17:00,thn,2.54
2023-07-10T01:18:00,thn,2.07
2023-07-10T01:19:00,thn,1.84
2023-07-10T01:20:00,thn,1.91
2023-07-10T01:21:00,thn,1.83
2023-07-10T01:22:00,thn,3.06
2023-07-10T01:23:00,thn,1.94
2023-07-10T01:24:00,thn,1.96
2023-07-10T01:25:00,thn,1.92
2023-07-10T01:26:00,thn,1.91
2023-07-10T01:27:00,thn,1.92
2023-07-10T01:28:00,thn,1.94
2023-07-10T01:29:00,thn,1.94
2023-07-10T01:30:00,thn,1.93
2023-07-10T01:31:00,thn,1.99
2023-07-10T01:32:00,thn,1.94
2023-07-10T01:33:00,thn,1.94
2023-07-10T01:34:00,thn,1.91
2023-07-10T01:35:00,thn,1.95
2023-07-10T01:36:00,thn,1.92
2023-07-10T01:37:00,thn,1.91
2023-07-10T01:38:00,thn,1.89
2023-07-10T01:39:00,thn,1.91
2023-07-10T01:40:00,thn,1.90
2023-07-10T01:41:00,thn,1.90
2023-07-10T01:42:00,thn,1.88
2023-07-10T01:43:00,thn,2.03
2023-07-10T01:44:00,thn,2.00
2023-07-10T01:45:00,thn,2.01
2023-07-10T01:46:00,thn,2.00
2023-07-10T01:47:00,thn,1.99
2023-07-10T01:48:00,thn,1.99
2023-07-10T01:49:00,thn,2.00
2023-07-10T01:50:00,thn,2.01
2023-07-10T01:51:00,thn,1.96
2023-07-10T01:52:00,thn,3.87
2023-07-10T01:53:00,thn,3.88
2023-07-10T01:54:00,thn,3.86
2023-07-10T01:55:00,thn,3.86
2023-07-10T01:56:00,thn,3.83
2023-07-10T01:57:00,thn,1.87
2023-07-10T01:58:00,thn,2.07
2023-07-10T01:59:00,thn,2.08
2023-07-10T02:00:00,thn,1.93
2023-07-10T02:01:00,thn,1.91
2023-07-10T02:02:00,thn,4.67
2023-07-10T02:03:00,thn,4.56
2023-07-10T02:04:00,thn,4.72
2023-07-10T02:05:00,thn,4.59
2023-07-10T02:06:00,thn,4.60
2023-07-10T02:07:00,thn,2.60
2023-07-10T02:08:00,thn,2.10
2023-07-10T02:09:00,thn,2.07
2023-07-10T02:10:00,thn,2.06
2023-07-10T02:11:00,thn,2.03
2023-07-10T02:12:00,thn,2.03
2023-07-10T02:13:00,thn,2.04
2023-07-10T02:14:00,thn,2.03
2023-07-10T02:15:00,thn,2.25
2023-07-10T02:16:00,thn,2.24
2023-07-10T02:17:00,thn,2.23
2023-07-10T02:18:00,thn,5.49
2023-07-10T02:19:00,thn,5.58
2023-07-10T02:20:00,thn,5.36
2023-07-10T02:21:00,thn,5.34
2023-07-10T02:22:00,thn,5.36
2023-07-10T02:23:00,thn,5.33
2023-07-10T02:24:00,thn,2.87
2023-07-10T02:25:00,thn,1.99
2023-07-10T02:26:00,thn,2.00
2023-07-10T02:27:00,thn,2.00
2023-07-10T02:28:00,thn,1.88
2023-07-10T02:29:00,thn,1.88
2023-07-10T02:30:00,thn,1.87
2023-07-10T02:31:00,thn,2.02
2023-07-10T02:32:00,thn,1.98
2023-07-10T02:33:00,thn,1.98
2023-07-10T02:34:00,thn,1.94
2023-07-10T02:35:00,thn,1.97
2023-07-10T02:36:00,thn,1.97
2023-07-10T02:37:00,thn,2.02
2023-07-10T02:38:00,thn,1.97
2023-07-10T02:39:00,thn,2.18
2023-07-10T02:40:00,thn,1.96
2023-07-10T02:41:00,thn,1.87
2023-07-10T02:42:00,thn,1.88
2023-07-10T02:43:00,thn,2.06
2023-07-10T02:44:00,thn,1.92
2023-07-10T02:45:00,thn,1.91
2023-07-10T02:46:00,thn,1.90
2023-07-10T02:47:00,thn,1.88
2023-07-10T02:48:00,thn,1.85
2023-07-10T02:49:00,thn,1.86
2023-07-10T02:50:00,thn,1.96
2023-07-10T02:51:00,thn,1.96
2023-07-10T02:52:00,thn,1.95
2023-07-10T02:53:00,thn,6.31
2023-07-10T02:54:00,thn,5.29
2023-07-10T02:55:00,thn,5.53
2023-07-10T02:56:00,thn,7.34
2023-07-10T02:57:00,thn,7.58
2023-07-10T02:58:00,thn,4.23
2023-07-10T02:59:00,thn,4.28
2023-07-10T03:00:00,thn,4.05
2023-07-10T03:01:00,thn,2.21
2023-07-10T03:02:00,thn,2.03
2023-07-10T03:03:00,thn,1.98
2023-07-10T03:04:00,thn,1.99
2023-07-10T03:05:00,thn,1.97
2023-07-10T03:06:00,thn,1.86
2023-07-10T03:07:00,thn,1.86
2023-07-10T03:08:00,thn,2.96
2023-07-10T03:09:00,thn,1.86
2023-07-10T03:10:00,thn,1.85
2023-07-10T03:11:00,thn,1.86
2023-07-10T03:12:00,thn,1.75
2023-07-10T03:13:00,thn,1.74
2023-07-10T03:14:00,thn,1.74
2023-07-10T03:15:00,thn,1.75
2023-07-10T03:16:00,thn,1.74
2023-07-10T03:17:00,thn,1.75
2023-07-10T03:18:00,thn,4.32
2023-07-10T03:19:00,thn,4.80
2023-07-10T03:20:00,thn,4.88
2023-07-10T03:21:00,thn,4.64
2023-07-10T03:22:00,thn,4.67
2023-07-10T03:23:00,thn,2.02
2023-07-10T03:24:00,thn,1.81
2023-07-10T03:25:00,thn,1.79
2023-07-10T03:26:00,thn,1.75
2023-07-10T03:27:00,thn,1.77
2023-07-10T03:28:00,thn,1.78
2023-07-10T03:29:00,thn,1.81
2023-07-10T03:30:00,thn,1.76
2023-07-10T03:31:00,thn,1.77
2023-07-10T03:32:00,thn,1.76
2023-07-10T03:33:00,thn,1.78
2023-07-10T03:34:00,thn,1.76
2023-07-10T03:35:00,thn,1.78
2023-07-10T03:36:00,thn,1.78
2023-07-10T03:37:00,thn,1.78
2023-07-10T03:38:00,thn,1.78
2023-07-10T03:39:00,thn,1.89
2023-07-10T03:40:00,thn,1.90
2023-07-10T03:41:00,thn,1.93
2023-07-10T03:42:00,thn,2.04
2023-07-10T03:43:00,thn,4.58
2023-07-10T03:44:00,thn,4.63
2023-07-10T03:45:00,thn,4.65
2023-07-10T03:46:00,thn,4.65
2023-07-10T03:47:00,thn,4.79
2023-07-10T03:48:00,thn,2.82
2023-07-10T03:49:00,thn,2.11
2023-07-10T03:50:00,thn,2.09
2023-07-10T03:51:00,thn,2.11
2023-07-10T03:52:00,thn,5.26
2023-07-10T03:53:00,thn,5.33
2023-07-10T03:54:00,thn,5.59
2023-07-10T03:55:00,thn,5.62
2023-07-10T03:56:00,thn,5.61
2023-07-10T03:57:00,thn,5.75
2023-07-10T03:58:00,thn,2.49
2023-07-10T03:59:00,thn,4.82
2023-07-10T04:00:00,thn,5.28
2023-07-10T04:01:00,thn,5.09
2023-07-10T04:02:00,thn,6.72
2023-07-10T04:03:00,thn,4.59
2023-07-10T04:04:00,thn,3.95
2023-07-10T04:05:00,thn,3.93
2023-07-10T04:06:00,thn,3.95
2023-07-10T04:07:00,thn,3.95
2023-07-10T04:08:00,thn,2.09
2023-07-10T04:09:00,thn,2.10
2023-07-10T04:10:00,thn,2.09
2023-07-10T04:11:00,thn,2.08
2023-07-10T04:12:00,thn,2.14
2023-07-10T04:13:00,thn,2.14
2023-07-10T04:14:00,thn,4.72
2023-07-10T04:15:00,thn,4.75
2023-07-10T04:16:00,thn,4.76
2023-07-10T04:17:00,thn,4.76
2023-07-10T04:18:00,thn,2.70
2023-07-10T04:19:00,thn,1.91
2023-07-10T04:20:00,thn,1.81
2023-07-10T04:21:00,thn,1.79
2023-07-10T04:22:00,thn,1.80
2023-07-10T04:23:00,thn,1.81
2023-07-10T04:24:00,thn,1.80
2023-07-10T04:25:00,thn,1.81
2023-07-10T04:26:00,thn,1.79
2023-07-10T04:27:00,thn,1.81
2023-07-10T04:28:00,thn,1.81
2023-07-10T04:29:00,thn,2.03
2023-07-10T04:30:00,thn,2.25
2023-07-10T04:31:00,thn,2.05
2023-07-10T04:32:00,thn,2.06
2023-07-10T04:33:00,thn,2.02
2023-07-10T04:34:00,thn,1.84
2023-07-10T04:35:00,thn,1.82
2023-07-10T04:36:00,thn,1.83
2023-07-10T04:37:00,thn,1.80
2023-07-10T04:38:00,thn,1.81
2023-07-10T04:39:00,thn,2.90
2023-07-10T04:40:00,thn,2.01
2023-07-10T04:41:00,thn,2.05
2023-07-10T04:42:00,thn,1.84
2023-07-10T04:43:00,thn,4.61
2023-07-10T04:44:00,thn,4.50
2023-07-10T04:45:00,thn,4.68
2023-07-10T04:46:00,thn,4.71
2023-07-10T04:47:00,thn,4.53
2023-07-10T04:48:00,thn,1.84
2023-07-10T04:49:00,thn,1.84
2023-07-10T04:50:00,thn,1.83
2023-07-10T04:51:00,thn,1.83
2023-07-10T04:52:00,thn,1.82
2023-07-10T04:53:00,thn,1.83
2023-07-10T04:54:00,thn,2.92
2023-07-10T04:55:00,thn,1.83
2023-07-10T04:56:00,thn,1.82
2023-07-10T04:57:00,thn,1.95
2023-07-10T04:58:00,thn,1.93
2023-07-10T04:59:00,thn,1.91
2023-07-10T05:00:00,thn,1.92
2023-07-10T05:01:00,thn,1.92
2023-07-10T05:02:00,thn,1.94
2023-07-10T05:03:00,thn,1.96
2023-07-10T05:04:00,thn,1.96
2023-07-10T05:05:00,thn,2.10
2023-07-10T05:06:00,thn,2.09
2023-07-10T05:07:00,thn,2.08
2023-07-10T05:08:00,thn,2.09
2023-07-10T05:09:00,thn,2.06
2023-07-10T05:10:00,thn,2.08
2023-07-10T05:11:00,thn,2.09
2023-07-10T05:12:00,thn,2.27
2023-07-10T05:13:00,thn,2.18
2023-07-10T05:14:00,thn,2.17
2023-07-10T05:15:00,thn,4.13
2023-07-10T05:16:00,thn,4.01
2023-07-10T05:17:00,thn,4.02
2023-07-10T05:18:00,thn,4.02
2023-07-10T05:19:00,thn,4.03
2023-07-10T05:20:00,thn,4.03
2023-07-10T05:21:00,thn,2.40
2023-07-10T05:22:00,thn,2.16
2023-07-10T05:23:00,thn,2.17
2023-07-10T05:24:00,thn,2.17
2023-07-10T05:25:00,thn,2.17
2023-07-10T05:26:00,thn,2.04
2023-07-10T05:27:00,thn,2.04
2023-07-10T05:28:00,thn,2.20
2023-07-10T05:29:00,thn,2.18
2023-07-10T05:30:00,thn,2.16
2023-07-10T05:31:00,thn,4.96
2023-07-10T05:32:00,thn,4.74
2023-07-10T05:33:00,thn,4.79
2023-07-10T05:34:00,thn,4.64
2023-07-10T05:35:00,thn,4.63
2023-07-10T05:36:00,thn,2.53
2023-07-10T05:37:00,thn,1.83
2023-07-10T05:38:00,thn,1.81
2023-07-10T05:39:00,thn,1.82
2023-07-10T05:40:00,thn,1.82
2023-07-10T05:41:00,thn,1.81
2023-07-10T05:42:00,thn,1.82
2023-07-10T05:43:00,thn,1.82
2023-07-10T05:44:00,thn,1.82
2023-07-10T05:45:00,thn,1.81
2023-07-10T05:46:00,thn,1.82
2023-07-10T05:47:00,thn,1.82
2023-07-10T05:48:00,thn,1.81
2023-07-10T05:49:00,thn,1.81
2023-07-10T05:50:00,thn,1.80
2023-07-10T05:51:00,thn,1.81
2023-07-10T05:52:00,thn,1.80
2023-07-10T05:53:00,thn,1.80
2023-07-10T05:54:00,thn,1.80
2023-07-10T05:55:00,thn,1.80
2023-07-10T05:56:00,thn,1.81
2023-07-10T05:57:00,thn,1.81
2023-07-10T05:58:00,thn,1.79
2023-07-10T05:59:00,thn,1.79
2023-07-10T06:00:00,thn,2.03
2023-07-10T06:01:00,thn,2.06
2023-07-10T06:02:00,thn,1.96
2023-07-10T06:03:00,thn,1.74
2023-07-10T06:04:00,thn,1.73
2023-07-10T06:05:00,thn,1.78
2023-07-10T06:06:00,thn,1.83
2023-07-10T06:07:00,thn,1.84
2023-07-10T06:08:00,thn,1.93
2023-07-10T06:09:00,thn,1.92
2023-07-10T06:10:00,thn,1.94
2023-07-10T06:11:00,thn,2.07
2023-07-10T06:12:00,thn,2.23
2023-07-10T06:13:00,thn,2.19
2023-07-10T06:14:00,thn,2.15
2023-07-10T06:15:00,thn,2.17
2023-07-10T06:16:00,thn,2.13
2023-07-10T06:17:00,thn,2.35
2023-07-10T06:18:00,thn,2.16
2023-07-10T06:19:00,thn,2.24
2023-07-10T06:20:00,thn,2.20
2023-07-10T06:21:00,thn,5.68
2023-07-10T06:22:00,thn,4.74
2023-07-10T06:23:00,thn,4.74
2023-07-10T06:24:00,thn,4.79
2023-07-10T06:25:00,thn,4.80
2023-07-10T06:26:00,thn,4.74
2023-07-10T06:27:00,thn,4.79
2023-07-10T06:28:00,thn,4.73
2023-07-10T06:29:00,thn,2.80
2023-07-10T06:30:00,thn,2.25
2023-07-10T06:31:00,thn,2.44
2023-07-10T06:32:00,thn,2.18
2023-07-10T06:33:00,thn,2.14
2023-07-10T06:34:00,thn,2.13
2023-07-10T06:35:00,thn,2.25
2023-07-10T06:36:00,thn,2.26
2023-07-10T06:37:00,thn,2.26
2023-07-10T06:38:00,thn,2.34
2023-07-10T06:39:00,thn,2.28
2023-07-10T06:40:00,thn,2.31
2023-07-10T06:41:00,thn,2.69
2023-07-10T06:42:00,thn,3.96
2023-07-10T06:43:00,thn,3.95
2023-07-10T06:44:00,thn,2.41
2023-07-10T06:45:00,thn,2.37
2023-07-10T06:46:00,thn,4.94
2023-07-10T06:47:00,thn,2.95
2023-07-10T06:48:00,thn,2.28
2023-07-10T06:49:00,thn,3.15
2023-07-10T06:50:00,thn,3.17
2023-07-10T06:51:00,thn,4.59
2023-07-10T06:52:00,thn,4.58
2023-07-10T06:53:00,thn,4.55
2023-07-10T06:54:00,thn,3.20
2023-07-10T06:55:00,thn,3.21
2023-07-10T06:56:00,thn,2.45
2023-07-10T06:57:00,thn,4.31
2023-07-10T06:58:00,thn,4.18
2023-07-10T06:59:00,thn,4.35
2023-07-10T07:00:00,thn,4.45
2023-07-10T07:01:00,thn,5.53
2023-07-10T07:02:00,thn,5.54
2023-07-10T07:03:00,thn,3.68
2023-07-10T07:04:00,thn,3.74
2023-07-10T07:05:00,thn,3.68
2023-07-10T07:06:00,thn,3.69
2023-07-10T07:07:00,thn,3.67
2023-07-10T07:08:00,thn,6.30
2023-07-10T07:09:00,thn,5.73
2023-07-10T07:10:00,thn,5.60
2023-07-10T07:11:00,thn,4.04
2023-07-10T07:12:00,thn,7.19
2023-07-10T07:13:00,thn,6.80
2023-07-10T07:14:00,thn,5.90
2023-07-10T07:15:00,thn,5.88
2023-07-10T07:16:00,thn,5.84
2023-07-10T07:17:00,thn,5.83
2023-07-10T07:18:00,thn,5.98
2023-07-10T07:19:00,thn,5.97
2023-07-10T07:20:00,thn,2.69
2023-07-10T07:21:00,thn,2.68
2023-07-10T07:22:00,thn,2.95
2023-07-10T07:23:00,thn,3.07
2023-07-10T07:24:00,thn,3.91
2023-07-10T07:25:00,thn,2.81
2023-07-10T07:26:00,thn,2.82
2023-07-10T07:27:00,thn,2.87
2023-07-10T07:28:00,thn,2.87
2023-07-10T07:29:00,thn,2.91
2023-07-10T07:30:00,thn,2.88
2023-07-10T07:31:00,thn,2.93
2023-07-10T07:32:00,thn,3.05
2023-07-10T07:33:00,thn,3.11
2023-07-10T07:34:00,thn,3.90
2023-07-10T07:35:00,thn,2.98
2023-07-10T07:36:00,thn,2.93
2023-07-10T07:37:00,thn,2.91
2023-07-10T07:38:00,thn,3.13
2023-07-10T07:39:00,thn,4.24
2023-07-10T07:40:00,thn,2.98
2023-07-10T07:41:00,thn,2.99
2023-07-10T07:42:00,thn,3.91
2023-07-10T07:43:00,thn,2.95
2023-07-10T07:44:00,thn,2.93
2023-07-10T07:45:00,thn,3.00
2023-07-10T07:46:00,thn,3.05
2023-07-10T07:47:00,thn,3.85
2023-07-10T07:48:00,thn,3.97
2023-07-10T07:49:00,thn,3.25
2023-07-10T07:50:00,thn,3.77
2023-07-10T07:51:00,thn,2.85
2023-07-10T07:52:00,thn,2.89
2023-07-10T07:53:00,thn,6.71
2023-07-10T07:54:00,thn,5.60
2023-07-10T07:55:00,thn,5.61
2023-07-10T07:56:00,thn,5.71
2023-07-10T07:57:00,thn,5.46
2023-07-10T07:58:00,thn,5.42
2023-07-10T07:59:00,thn,5.01
2023-07-10T08:00:00,thn,4.00
2023-07-10T08:01:00,thn,5.34
2023-07-10T08:02:00,thn,3.92
2023-07-10T08:03:00,thn,3.69
2023-07-10T08:04:00,thn,2.70
2023-07-10T08:05:00,thn,2.70
2023-07-10T08:06:00,thn,2.69
2023-07-10T08:07:00,thn,2.69
2023-07-10T08:08:00,thn,4.01
2023-07-10T08:09:00,thn,2.55
2023-07-10T08:10:00,thn,2.61
2023-07-10T08:11:00,thn,2.57
2023-07-10T08:12:00,thn,3.45
2023-07-10T08:13:00,thn,2.63
2023-07-10T08:14:00,thn,2.62
2023-07-10T08:15:00,thn,2.51
2023-07-10T08:16:00,thn,2.51
2023-07-10T08:17:00,thn,2.45
2023-07-10T08:18:00,thn,2.41
2023-07-10T08:19:00,thn,2.43
2023-07-10T08:20:00,thn,2.80
2023-07-10T08:21:00,thn,2.81
2023-07-10T08:22:00,thn,2.78
2023-07-10T08:23:00,thn,2.80
2023-07-10T08:24:00,thn,2.72
2023-07-10T08:25:00,thn,2.71
2023-07-10T08:26:00,thn,5.94
2023-07-10T08:27:00,thn,6.05
2023-07-10T13:52:00,thn,2.08
2023-07-10T13:53:00,thn,2.08
2023-07-10T13:54:00,thn,2.06
2023-07-10T13:55:00,thn,2.14
2023-07-10T13:56:00,thn,2.15
2023-07-10T13:57:00,thn,2.15
2023-07-10T13:58:00,thn,2.13
2023-07-10T13:59:00,thn,2.15
2023-07-10T14:00:00,thn,2.16
2023-07-10T14:01:00,thn,2.16
2023-07-10T14:02:00,thn,2.20
2023-07-10T14:03:00,thn,2.24
2023-07-10T14:04:00,thn,2.24
2023-07-10T14:05:00,thn,2.30
2023-07-10T14:06:00,thn,2.28
2023-07-10T14:07:00,thn,2.29
2023-07-10T14:08:00,thn,2.27
2023-07-10T14:09:00,thn,2.47
2023-07-10T14:10:00,thn,2.27
2023-07-10T14:11:00,thn,2.25
2023-07-10T14:12:00,thn,4.13
2023-07-10T14:13:00,thn,4.18
2023-07-10T14:14:00,thn,5.59
2023-07-10T14:15:00,thn,5.65
2023-07-10T14:16:00,thn,4.22
2023-07-10T14:17:00,thn,2.30
2023-07-10T14:18:00,thn,2.32
2023-07-10T14:19:00,thn,2.28
2023-07-10T14:20:00,thn,2.33
2023-07-10T14:21:00,thn,2.28
2023-07-10T14:22:00,thn,2.31
2023-07-10T14:23:00,thn,2.27
2023-07-10T14:24:00,thn,2.32
2023-07-10T14:25:00,thn,2.21
2023-07-10T14:26:00,thn,2.21
2023-07-10T14:27:00,thn,2.19
2023-07-10T14:28:00,thn,2.28
2023-07-10T14:29:00,thn,2.21
2023-07-10T14:30:00,thn,2.20
2023-07-10T14:31:00,thn,2.35
2023-07-10T14:32:00,thn,2.42
2023-07-10T14:33:00,thn,2.38
2023-07-10T14:34:00,thn,2.39
2023-07-10T14:35:00,thn,5.06
2023-07-10T14:36:00,thn,4.92
2023-07-10T14:37:00,thn,4.90
2023-07-10T14:38:00,thn,4.89
2023-07-10T14:39:00,thn,4.92
2023-07-10T14:40:00,thn,2.90
2023-07-10T14:41:00,thn,2.26
2023-07-10T14:42:00,thn,2.26
2023-07-10T14:43:00,thn,2.28
2023-07-10T14:44:00,thn,2.25
2023-07-10T14:45:00,thn,2.22
2023-07-10T14:46:00,thn,2.46
2023-07-10T14:47:00,thn,2.21
2023-07-10T14:48:00,thn,2.24
2023-07-10T14:49:00,thn,2.46
2023-07-10T14:50:00,thn,2.44
2023-07-10T14:51:00,thn,2.22
2023-07-10T14:52:00,thn,2.44
2023-07-10T14:53:00,thn,2.46
2023-07-10T14:54:00,thn,2.50
2023-07-10T14:55:00,thn,2.46
2023-07-10T14:56:00,thn,2.51
2023-07-10T14:57:00,thn,2.48
2023-07-10T14:58:00,thn,2.44
2023-07-10T14:59:00,thn,2.46
2023-07-10T15:00:00,thn,2.42
2023-07-10T15:01:00,thn,2.44
2023-07-10T15:02:00,thn,2.40
2023-07-10T15:03:00,thn,2.41
2023-07-10T15:04:00,thn,2.40
2023-07-10T15:05:00,thn,2.38
2023-07-10T15:06:00,thn,2.35
2023-07-10T15:07:00,thn,2.37
2023-07-10T15:08:00,thn,2.36
2023-07-10T15:09:00,thn,2.37
2023-07-10T15:10:00,thn,2.39
2023-07-10T15:11:00,thn,2.46
2023-07-10T15:12:00,thn,2.59
2023-07-10T15:13:00,thn,2.56
2023-07-10T15:14:00,thn,2.54
2023-07-10T15:15:00,thn,2.53
2023-07-10T15:16:00,thn,2.49
2023-07-10T15:17:00,thn,2.48
2023-07-10T15:18:00,thn,2.46
2023-07-10T15:19:00,thn,2.45
2023-07-10T15:20:00,thn,2.43
2023-07-10T15:21:00,thn,2.06
2023-07-10T15:22:00,thn,3.25
2023-07-10T15:23:00,thn,1.76
2023-07-10T15:24:00,thn,1.73
2023-07-10T15:25:00,thn,1.68
2023-07-10T15:26:00,thn,1.68
2023-07-10T15:27:00,thn,1.74
2023-07-10T15:28:00,thn,1.76
2023-07-10T15:29:00,thn,1.80
2023-07-10T15:30:00,thn,3.45
2023-07-10T15:31:00,thn,1.81
2023-07-10T15:32:00,thn,1.78
2023-07-10T15:33:00,thn,1.78
2023-07-10T15:34:00,thn,1.82
2023-07-10T15:35:00,thn,3.25
2023-07-10T15:36:00,thn,3.25
2023-07-10T15:37:00,thn,1.86
2023-07-10T15:38:00,thn,1.91
2023-07-10T15:39:00,thn,1.94
2023-07-10T15:40:00,thn,1.92
2023-07-10T15:41:00,thn,1.98
2023-07-10T15:42:00,thn,1.97
2023-07-10T15:43:00,thn,1.92
2023-07-10T15:44:00,thn,2.15
2023-07-10T15:45:00,thn,5.34
2023-07-10T15:46:00,thn,5.42
2023-07-10T15:47:00,thn,5.50
2023-07-10T15:48:00,thn,5.50
2023-07-10T15:49:00,thn,5.32
2023-07-10T15:50:00,thn,1.91
2023-07-10T15:51:00,thn,1.88
2023-07-10T15:52:00,thn,1.94
2023-07-10T15:53:00,thn,1.88
2023-07-10T15:54:00,thn,1.88
2023-07-10T15:55:00,thn,1.91
2023-07-10T15:56:00,thn,1.92
2023-07-10T15:57:00,thn,1.97
2023-07-10T15:58:00,thn,1.96
2023-07-10T15:59:00,thn,1.94
2023-07-10T16:00:00,thn,2.03
2023-07-10T16:01:00,thn,2.00
2023-07-10T16:02:00,thn,1.93
2023-07-10T16:03:00,thn,4.61
2023-07-10T16:04:00,thn,4.46
2023-07-10T16:05:00,thn,4.32
2023-07-10T16:06:00,thn,4.32
2023-07-10T16:07:00,thn,2.35
2023-07-10T16:08:00,thn,3.14
2023-07-10T16:09:00,thn,3.14
2023-07-10T16:10:00,thn,6.57
2023-07-10T16:11:00,thn,6.69
2023-07-10T16:12:00,thn,5.05
2023-07-10T16:13:00,thn,5.08
2023-07-10T16:14:00,thn,5.13
2023-07-10T16:15:00,thn,5.11
2023-07-10T16:16:00,thn,2.66
2023-07-10T16:17:00,thn,1.80
2023-07-10T16:18:00,thn,1.79
2023-07-10T16:19:00,thn,1.80
2023-07-10T16:20:00,thn,1.80
2023-07-10T16:21:00,thn,1.77
2023-07-10T16:22:00,thn,1.87
2023-07-10T16:23:00,thn,5.12
2023-07-10T16:24:00,thn,5.25
2023-07-10T16:25:00,thn,5.29
2023-07-10T16:26:00,thn,5.30
2023-07-10T16:27:00,thn,2.87
2023-07-10T16:28:00,thn,2.16
2023-07-10T16:29:00,thn,2.20
2023-07-10T16:30:00,thn,2.04
2023-07-10T16:31:00,thn,2.16
2023-07-10T16:32:00,thn,2.11
2023-07-10T16:33:00,thn,1.92
2023-07-10T16:34:00,thn,2.22
2023-07-10T16:35:00,thn,5.36
2023-07-10T16:36:00,thn,5.22
2023-07-10T16:37:00,thn,5.55
2023-07-10T16:38:00,thn,5.39
2023-07-10T16:39:00,thn,5.61
2023-07-10T16:40:00,thn,5.65
2023-07-10T16:41:00,thn,2.33
2023-07-10T16:42:00,thn,2.32
2023-07-10T16:43:00,thn,2.06
2023-07-10T16:44:00,thn,2.13
2023-07-10T16:45:00,thn,2.13
2023-07-10T16:46:00,thn,2.11
2023-07-10T16:47:00,thn,2.10
2023-07-10T16:48:00,thn,2.22
2023-07-10T16:49:00,thn,2.02
2023-07-10T16:50:00,thn,1.99
2023-07-10T16:51:00,thn,2.27
2023-07-10T16:52:00,thn,2.10
2023-07-10T16:53:00,thn,3.87
2023-07-10T16:54:00,thn,3.64
2023-07-10T16:55:00,thn,2.03
2023-07-10T16:56:00,thn,2.09
2023-07-10T16:57:00,thn,2.10
2023-07-10T16:58:00,thn,2.17
2023-07-10T16:59:00,thn,2.57
2023-07-10T17:00:00,thn,2.38
2023-07-10T17:01:00,thn,2.33
2023-07-10T17:02:00,thn,2.33
2023-07-10T17:03:00,thn,2.97
2023-07-10T17:04:00,thn,2.62
2023-07-10T17:05:00,thn,2.87
2023-07-10T17:06:00,thn,4.74
2023-07-10T17:07:00,thn,4.25
2023-07-10T17:08:00,thn,4.85
2023-07-10T17:09:00,thn,4.88
2023-07-10T17:10:00,thn,4.51
2023-07-10T17:11:00,thn,4.96
2023-07-10T17:12:00,thn,4.95
2023-07-10T17:13:00,thn,4.61
2023-07-10T17:14:00,thn,4.74
2023-07-10T17:15:00,thn,4.79
2023-07-10T17:16:00,thn,4.33
2023-07-10T17:17:00,thn,4.28
2023-07-10T17:18:00,thn,2.37
2023-07-10T17:19:00,thn,2.47
2023-07-10T17:20:00,thn,2.67
2023-07-10T17:21:00,thn,2.77
2023-07-10T17:22:00,thn,2.77
2023-07-10T17:23:00,thn,2.70
2023-07-10T17:24:00,thn,2.77
2023-07-10T17:25:00,thn,3.62
2023-07-10T17:26:00,thn,3.52
2023-07-10T17:27:00,thn,5.54
2023-07-10T17:28:00,thn,5.42
2023-07-10T17:29:00,thn,5.46
2023-07-10T17:30:00,thn,4.56
2023-07-10T17:31:00,thn,4.77
2023-07-10T17:32:00,thn,4.58
2023-07-10T17:33:00,thn,5.53
2023-07-10T17:34:00,thn,4.59
2023-07-10T17:35:00,thn,4.62
2023-07-10T17:36:00,thn,4.77
2023-07-10T17:37:00,thn,2.85
2023-07-10T17:38:00,thn,7.36
2023-07-10T17:39:00,thn,7.14
2023-07-10T17:40:00,thn,7.17
2023-07-10T17:41:00,thn,7.14
2023-07-10T17:42:00,thn,7.14
2023-07-10T17:43:00,thn,7.03
2023-07-10T17:44:00,thn,7.05
2023-07-10T17:45:00,thn,7.01
2023-07-10T17:46:00,thn,6.99
2023-07-10T17:47:00,thn,7.83
2023-07-10T17:48:00,thn,7.02
2023-07-10T17:49:00,thn,8.90
2023-07-10T17:50:00,thn,9.87
2023-07-10T17:51:00,thn,8.86
2023-07-10T17:52:00,thn,8.81
2023-07-10T17:53:00,thn,9.68
2023-07-10T17:54:00,thn,8.54
2023-07-10T17:55:00,thn,6.89
2023-07-10T17:56:00,thn,7.76
2023-07-10T17:57:00,thn,6.89
2023-07-10T17:58:00,thn,6.94
2023-07-10T17:59:00,thn,7.80
2023-07-10T18:00:00,thn,7.20
2023-07-10T18:01:00,thn,7.21
2023-07-10T18:02:00,thn,7.18
2023-07-10T18:03:00,thn,7.22
2023-07-10T18:04:00,thn,7.06
2023-07-10T18:05:00,thn,7.01
2023-07-10T18:06:00,thn,7.00
2023-07-10T18:07:00,thn,6.97
2023-07-10T18:08:00,thn,7.00
2023-07-10T18:09:00,thn,2.84
2023-07-10T18:10:00,thn,2.84
2023-07-10T18:11:00,thn,6.97
2023-07-10T18:12:00,thn,7.26
2023-07-10T18:13:00,thn,7.03
2023-07-10T18:14:00,thn,2.88
2023-07-10T18:15:00,thn,2.92
2023-07-10T18:16:00,thn,7.03
2023-07-10T18:17:00,thn,7.02
2023-07-10T18:18:00,thn,2.88
2023-07-10T18:19:00,thn,2.83
2023-07-10T18:20:00,thn,2.87
2023-07-10T18:21:00,thn,7.23
2023-07-10T18:22:00,thn,8.55
2023-07-10T18:23:00,thn,4.37
2023-07-10T18:24:00,thn,2.79
2023-07-10T18:25:00,thn,2.77
2023-07-10T18:26:00,thn,6.80
2023-07-10T18:27:00,thn,9.40
2023-07-10T18:28:00,thn,5.29
2023-07-10T18:29:00,thn,5.31
2023-07-10T18:30:00,thn,5.36
2023-07-10T18:31:00,thn,9.43
2023-07-10T18:32:00,thn,7.48
2023-07-10T18:33:00,thn,2.85
2023-07-10T18:34:00,thn,3.06
2023-07-10T18:35:00,thn,2.76
2023-07-10T18:36:00,thn,2.76
2023-07-10T18:37:00,thn,2.80
2023-07-10T18:38:00,thn,2.43
2023-07-10T18:39:00,thn,2.43
2023-07-10T18:40:00,thn,2.44
2023-07-10T18:41:00,thn,2.44
2023-07-10T18:42:00,thn,2.42
2023-07-10T18:43:00,thn,2.41
2023-07-10T18:44:00,thn,2.44
2023-07-10T18:45:00,thn,2.45
2023-07-10T18:46:00,thn,2.44
2023-07-10T18:47:00,thn,5.68
2023-07-10T18:48:00,thn,7.39
2023-07-10T18:49:00,thn,7.36
2023-07-10T18:50:00,thn,7.40
2023-07-10T18:51:00,thn,7.38
2023-07-10T18:52:00,thn,5.09
2023-07-10T18:53:00,thn,4.28
2023-07-10T18:54:00,thn,4.11
2023-07-10T18:55:00,thn,4.01
2023-07-10T18:56:00,thn,4.03
2023-07-10T18:57:00,thn,2.36
2023-07-10T18:58:00,thn,2.36
2023-07-10T18:59:00,thn,2.47
2023-07-10T19:00:00,thn,2.46
2023-07-10T19:01:00,thn,2.50
2023-07-10T19:02:00,thn,5.22
2023-07-10T19:03:00,thn,5.21
2023-07-10T19:04:00,thn,5.32
2023-07-10T19:05:00,thn,6.08
2023-07-10T19:06:00,thn,4.04
2023-07-10T19:07:00,thn,3.29
2023-07-10T19:08:00,thn,2.62
2023-07-10T19:09:00,thn,2.56